Location: Forst
(46.9333°N, 15.4333°E)
Time: 06:39:16
(UTC+00:00)

Cosmos 389 Rocket - Pass Details

Date: 01 December 2020
Orbit: 442 x 473 km, 81.1° (Epoch: 18 January)

Event Time Altitude Azimuth Distance (km) Brightness Sun altitude
Rises 16:02:08 0° 197° (SSW) 2,428 6.8 -8.5°
Reaches altitude 10° 16:04:12 10° 201° (SSW) 1,561 5.8 -8.9°
Maximum altitude 16:07:35 62° 283° (WNW) 504 2.9 -9.4°
Drops below altitude 10° 16:10:59 10° 5° (N) 1,573 4.9 -9.9°
Sets 16:13:04 0° 9° (N) 2,450 5.8 -10.3°
